This is the latest recevied weather packets stored in our database for station/object EB2EMZ-W. If no packets are shown the sender has not sent any weather packets the latest 10 day(s).
| Time | Temp. | Humidity | Pressure | Rain* | Wind** | Luminosity | Snow |
|---|---|---|---|---|---|---|---|
| 1788484051 | 17.78° C | 73% | 1006 hPa | 0 mm | - | - | - |
| 1788482230 | 18.33° C | 72% | 1006 hPa | 0 mm | - | - | - |
| 1788480409 | 18.89° C | 71% | 1007 hPa | 0 mm | - | - | - |
| 1788478588 | 18.89° C | 69% | 1007 hPa | 0 mm | - | - | - |
| 1788475922 | 19.44° C | 70% | 1007 hPa | 0 mm | - | - | - |
| 1788474102 | 20° C | 66% | 1007 hPa | 0 mm | - | - | - |
| 1788472282 | 20.56° C | 64% | 1007 hPa | 0 mm | - | - | - |
| 1788470461 | 20.56° C | 61% | 1007 hPa | 0 mm | - | - | - |
| 1788468654 | 21.11° C | 58% | 1007 hPa | 0 mm | - | - | - |
| 1788466822 | 22.22° C | 50% | 1007 hPa | 0 mm | - | - | - |
| 1788465000 | 22.78° C | 45% | 1007 hPa | 0 mm | - | - | - |
| 1788463181 | 23.89° C | 41% | 1007 hPa | 0 mm | - | - | - |
| 1788461361 | 25.56° C | 34% | 1007 hPa | 0 mm | - | - | - |
| 1788459540 | 27.22° C | 33% | 1006 hPa | 0 mm | - | - | - |
| 1788457720 | 30.56° C | 22% | 1006 hPa | 0 mm | - | - | - |
| 1788455899 | 42.78° C | 11% | 1006 hPa | 0 mm | - | - | - |
| 1788454078 | 41.67° C | 11% | 1006 hPa | 0 mm | - | - | - |
| 1788452259 | 38.33° C | 13% | 1006 hPa | 0 mm | - | - | - |
| 1788450439 | 45.56° C | 10% | 1006 hPa | 0 mm | - | - | - |
| 1788448618 | 42.22° C | 13% | 1006 hPa | 0 mm | - | - | - |
| 1788446798 | 32.78° C | 20% | 1006 hPa | 0 mm | - | - | - |
| 1788444977 | 32.78° C | 20% | 1006 hPa | 0 mm | - | - | - |
| 1788443157 | 32.78° C | 18% | 1006 hPa | 0 mm | - | - | - |
| 1788441337 | 32.22° C | 19% | 1006 hPa | 0 mm | - | - | - |
| 1788439517 | 31.11° C | 20% | 1007 hPa | 0 mm | - | - | - |
* Rain latest hour (hover to see other rain measurements)
** Current wind speed in m/s (hover to see current wind gust speed)